Regional Weather Roundup
Issued by NWS

Home | Current Version | Previous Version | Text Only | Print | Product List | Glossary Off
Versions: 1 2 3 4 5 6 7 8 9 10 11 12 13 14 15 16 17 18 19 20 21 22 23 24 25 26 27 28 29 30 31 32 33 34 35 36 37 38 39 40 41 42 43 44 45 46 47 48 49 50

000
ASUS45 KTFX 270919
RWRMT
MONTANA HOURLY WEATHER ROUNDUP
NATIONAL WEATHER SERVICE GREAT FALLS MT
219 AM MST THU NOV 27 2014

NOTE: "FAIR" INDICATES FEW OR NO CLOUDS BELOW 12000 FEET WITH NO
SIGNIFICANT WEATHER AND/OR OBSTRUCTIONS TO VISIBILITY.

* THESE STATIONS ARE NOT UNDER NWS QUALITY CONTROL. THEY DO NOT
   REPORT WEATHER SUCH AS PRECIPITATION OR FOG.

MTZ001>007-043-271000-
WEST OF THE DIVIDE
CITY           SKY/WX    TMP DP  RH WIND       PRES   REMARKS
KALISPELL      FOG       34  32  92 CALM      29.96F VSB 2
MISSOULA       FOG       30  30 100 S3        30.06F VSB 1/2
BUTTE          CLOUDY    45  23  42 W5        30.09S
MULLAN PASS    CLOUDY    34  34 100 S10G24    29.98F WCI  26
* ESSEX        N/A       32  31  96 N/A        N/A
* EUREKA APT   CLOUDY    37  36  96 SE14      29.91F WCI  28
* HAMILTON APT MOCLDY    43  30  60 S14       30.04F
* LIBBY APT    CLOUDY   N/A N/A N/A CALM      29.94F VSB 2
* LINCOLN      N/A       38  33  82 S4G11      N/A
* LOOKOUT PASS N/A       38  36  93 S6G11      N/A   WCI  33
* POLSON       N/A       37  37 100 SE2        N/A
* RONAN APT    CLOUDY    37  36  96 N/A        N/A
* SEELEY LAKE  N/A       32  31  96 N2         N/A
* THOMP F APT  CLOUDY    34  31  89 E3         N/A
* YAAK HILL    N/A       33  31  92 E2         N/A
$$

MTZ008-052>055-271000-
SOUTHWEST MONTANA
CITY           SKY/WX    TMP DP  RH WIND       PRES   REMARKS
BOZEMAN        CLOUDY    34  30  85 SE7       30.05F WCI  28
DILLON         MOCLDY    37  27  67 S13       30.12R WCI  29
* W YELLOWSTON CLOUDY    34  30  85 SW2G11     N/A
* ENNIS APT    CLOUDY    45  25  45 SE13G20    N/A
* THREE FORKS  CLOUDY    27   7  42 N/A        N/A
* BOULDER HILL N/A       41  22  47 SW12       N/A
* MONIDA PASS  N/A       32  32 100 SE18G24    N/A   WCI  21
* RAYNOLDS PAS N/A       34  19  54 S16G24     N/A   WCI  24
* WHITEHALL    N/A       47  26  44 W14G26     N/A
* WISE RIVER   N/A       32  26  79 SW2        N/A
$$

MTZ009>010-012-014-046-048-049-054-271000-
EAST SLOPES AND CENTRAL MONTANA
CITY           SKY/WX    TMP DP  RH WIND       PRES   REMARKS
CUT BANK       FOG       27  25  92 SE16      29.87F VSB M1/4 WCI  15
GREAT FALLS    CLOUDY    37  32  82 S9        29.92F WCI  30
HELENA         FOG       28  27  96 CALM      30.03F VSB M1/4
MALMSTROM AFB  CLOUDY    27  27 100 S6        29.94F WCI  20
* CONRAD       CLOUDY    27  27 100 E5         N/A   WCI  21
* DEARBORN     N/A       41  33  73 S9G14      N/A
* EAST GLACIER N/A       38  33  82 W32G49     N/A   WCI  25
* MONARCH      N/A       41  23  49 SW11G17    N/A
* PENDROY      N/A       22  22 100 SE2        N/A
* ROGERS PASS  N/A       38  31  76 SE17G34    N/A   WCI  29
* SAINT MARY   N/A       40  35  82 SW13G30    N/A   WCI  32
* SWEET GRASS  N/A       25  25 100 S27        N/A   WCI   9
* WHITE SULPH  N/A       39  29  67 SW5G17     N/A   WCI  35
$$

MTZ011-013-016-021-035-040-045-047-050-051-271000-
NORTH CENTRAL MONTANA
CITY           SKY/WX    TMP DP  RH WIND       PRES   REMARKS
HAVRE          CLOUDY    30  27  89 SE5       29.97F WCI  25
LEWISTOWN      CLOUDY    32  27  82 E5        29.95F WCI  27
* N BAR RANCH  CLOUDY    27  25  92 W3        29.97F
* CHINOOK      CLOUDY    28  27  96 E15G22    29.99F WCI  16
* FORT BENTON  CLOUDY    30  27  89 E5        29.96F WCI  25
* CHESTER      N/A       27  25  92 SE7G13     N/A   WCI  19
* DENTON       N/A       27  26  96 N4         N/A
* GEYSER       N/A       41  28  60 SW22G28    N/A
* JUDITH GAP   N/A       25  24  96 SE9        N/A   WCI  16
* LOMA         N/A       29  27  92 E11G17     N/A   WCI  19
$$

MTZ017>020-022>027-061-062-271000-
NORTHEAST MONTANA
CITY           SKY/WX    TMP DP  RH WIND       PRES   REMARKS
GLASGOW        CLOUDY    18  12  77 E15       30.15F WCI   4
GLENDIVE       CLOUDY    18  12  77 NE7       30.20F WCI   9
JORDAN         MOCLDY    27  23  85 SE9       30.10F WCI  18
SIDNEY         MOCLDY    16   7  67 CALM      30.27F
WOLF POINT     CLOUDY    16  10  77 E9        30.22F WCI   5
* BEAVER HILL  N/A       21  16  81 SE12       N/A   WCI   9
* CIRCLE       N/A       25  22  88 N/A        N/A
* LINDSAY DVD  N/A       17  15  92 E9         N/A   WCI   6
* NAVAJO       N/A        7   4  87 E4         N/A
* PLENTYWOOD A MOCLDY     7   3  83 N/A       30.22F
* POPLAR APT   MOCLDY    14   9  80 N/A       30.22F
* SACO         N/A       19  16  88 E14G19     N/A   WCI   5
$$

MTZ028>042-056>058-271000-
SOUTHCENTRAL AND SOUTHEAST MONTANA
CITY           SKY/WX    TMP DP  RH WIND       PRES   REMARKS
BAKER          CLOUDY    21  16  81 SE15      30.18F WCI   7
BILLINGS       FOG       27  27 100 CALM      30.04F
LIVINGSTON     CLOUDY    43  30  60 SW29G37   29.97F
MILES CITY     CLOUDY    27  25  92 SE10      30.12F WCI  18
* BIG TIMBER A CLOUDY    43  28  56 NW5       30.00F
* FORSYTH APT  MOCLDY    27  27 100 E5        30.11R WCI  21
* LAUREL APT   CLOUDY    28  21  75 N/A        N/A
* ALZADA       N/A       20  18  92 E11        N/A   WCI   8
* HYSHAM       N/A       28  26  92 N2         N/A
* REED POINT   N/A       26  25  96 E3         N/A
* ROSCOE HILL  N/A       48  15  27 SW19G32    N/A
$$

REGIONAL REPORTS...DAKOTAS
CITY           SKY/WX    TMP DP  RH WIND       PRES   REMARKS
WILLISTON      PTCLDY     7   1  76 E3        30.28F
DICKINSON      PTCLDY    10   7  88 S15       30.24F WCI  -7
BEACH          CLOUDY    16  16 100 SE8       30.22S WCI   5
CROSBY         CLOUDY     7   5  91 S8        30.31F WCI  -6
TIOGA          PTCLDY     5   5 100 S8        30.31F WCI  -8
BISMARCK       CLOUDY    -9 -15  74 NE8       30.45S WCI -25
GRAND FORKS    CLEAR    -15 -18  86 CALM      30.55F
FARGO          PTCLDY    -9 -17  67 CALM      30.56S
BUFFALO SD     PTCLDY    19  16  88 SE15      30.13F WCI   5
RAPID CITY     CLOUDY    21  19  92 SE7       30.23F WCI  12
$$

REGIONAL REPORTS...WYOMING/IDAHO/WASHINGTON
CITY           SKY/WX    TMP DP  RH WIND       PRES   REMARKS
GILLETTE       PTCLDY    23  19  85 S9        30.08F WCI  13
SHERIDAN       FOG       23  21  92 CALM      30.05F VSB M1/4
CODY           CLOUDY    21  19  92 S10       30.06F WCI  10
YELLOWSTONE LA CLOUDY    30  27  89 CALM      30.26F
SALMON         CLOUDY    30  28  92 CALM      30.15F VSB M1/4
MULLAN PASS    CLOUDY    34  34 100 S10G24    29.98S WCI  26
SAND POINT     FOG       36  36 100 CALM      29.94F VSB 3
SPOKANE        CLOUDY    46  39  77 S15       29.91F
$$

REGIONAL REPORTS...ALBERTA
CITY           SKY/WX    TMP DP  RH WIND       PRES   REMARKS
CALGARY        LGT SNOW  27  25  92 SE8       29.86F VSB 3    WCI  19
LETHBRIDGE     CLOUDY    28  27  96 SE6       29.84F WCI  21
MEDICINE HAT   LGT SNOW  28  28 100 NE8       29.96F VSB 1    WCI  20
EDMONTON       LGT SNOW  18  14  84 NE14      30.02F VSB 2    WCI   4
WATERTON GATE  N/A       41  34  76 SW16G24    N/A
CARDSTON       N/A       23  23 100 SW1        N/A
MILK RIVER     N/A       27  27 100 S13G21     N/A   WCI  16
$$

REGIONAL REPORTS...SASKATCHEWAN
CITY           SKY/WX    TMP DP  RH WIND       PRES   REMARKS
SWIFT CURRENT  CLOUDY    21  19  92 SE12      30.07F WCI   9
REGINA         LGT SNOW   7   3  83 SE14      30.26F WCI -10
VAL MARIE      N/A       21  19  92 SE8        N/A   WCI  11
ASSINIBOIA     N/A       14  12  92 SE9        N/A   WCI   2
CORONACH       N/A       10   9  96 SE9        N/A   WCI  -3

$$




USA.gov is the U.S. government's official web portal to all federal, state and local government web resources and services.